Voltar ao catálogo

THORAD AGENA D DEB

AtivoPO
NORAD 4754·DEBRIS·🇺🇸 United States

Lançado Apr 8, 1970 de Vandenberg Space Force Base

Loading…

Próximas Passagens (próximas 24 horas)

TLE

AtualizadoSource: Space-Track

Época: Sep 13, 2026, 20:35 UTC

1 04754U 70025DC  26256.85781203  .00004235  00000-0  14320-2 0  9995
2 04754  99.5907 230.4229 0016504  24.2111 335.9844 14.37401266846547

Acompanhe THORAD AGENA D DEB em tempo real com AllMySat

Download on the App Store